Time,TemperatureF,DewpointF,PressureIn,WindDirection,WindDirectionDegrees,WindSpeedMPH,WindSpeedGustMPH,Humidity,HourlyPrecipIn,Conditions,Clouds,dailyrainin,SoftwareType,DateUTC
2013-05-16 00:04:00,52.9,48.8,30.00,SSE,147,0.0,0.0,86,0.00,,---,0.00,VWS V14.01,2013-05-16 07:04:00,
2013-05-16 00:09:00,52.9,48.8,30.00,SSE,155,0.0,0.0,86,0.00,,---,0.00,VWS V14.01,2013-05-16 07:09:00,
2013-05-16 00:14:00,52.9,48.8,30.00,SE,146,0.0,0.0,86,0.00,,---,0.00,VWS V14.01,2013-05-16 07:14:00,
2013-05-16 00:19:00,52.9,48.8,30.00,SSE,147,0.0,0.0,86,0.00,,---,0.00,VWS V14.01,2013-05-16 07:19:00,
2013-05-16 00:24:00,53.1,49.0,30.00,SE,132,0.0,0.0,86,0.00,,---,0.00,VWS V14.01,2013-05-16 07:24:00,
2013-05-16 00:29:00,53.1,49.0,30.00,SSE,159,0.0,0.0,86,0.00,,---,0.00,VWS V14.01,2013-05-16 07:29:00,
2013-05-16 00:34:00,53.1,49.0,30.00,ESE,114,0.0,0.0,86,0.00,,---,0.00,VWS V14.01,2013-05-16 07:34:00,
2013-05-16 00:39:00,53.1,49.0,30.00,SSE,159,0.0,0.0,86,0.00,,---,0.00,VWS V14.01,2013-05-16 07:39:00,
2013-05-16 00:45:00,53.1,48.7,30.00,SE,140,0.0,0.0,85,0.00,,---,0.00,VWS V14.01,2013-05-16 07:45:00,
2013-05-16 00:50:00,53.2,49.1,30.00,SE,132,0.0,0.0,86,0.00,,---,0.00,VWS V14.01,2013-05-16 07:50:00,
2013-05-16 00:55:00,53.2,49.1,30.00,SE,140,0.0,0.0,86,0.00,,---,0.00,VWS V14.01,2013-05-16 07:55:00,
2013-05-16 01:00:00,53.2,49.1,30.00,SE,142,0.0,0.0,86,0.00,,---,0.00,VWS V14.01,2013-05-16 08:00:00,
2013-05-16 01:05:00,53.2,49.1,30.00,SSE,152,0.0,0.0,86,0.00,,---,0.00,VWS V14.01,2013-05-16 08:05:00,
2013-05-16 01:10:00,53.2,49.1,30.00,SE,146,0.0,0.0,86,0.00,,---,0.00,VWS V14.01,2013-05-16 08:10:00,
2013-05-16 01:15:00,53.2,49.1,29.99,SE,125,0.0,0.0,86,0.00,,---,0.00,VWS V14.01,2013-05-16 08:15:00,
2013-05-16 01:20:00,53.2,49.1,30.00,SE,138,0.0,0.0,86,0.00,,---,0.00,VWS V14.01,2013-05-16 08:20:00,
2013-05-16 01:25:00,53.2,49.1,29.99,SE,126,0.0,0.0,86,0.00,,---,0.00,VWS V14.01,2013-05-16 08:25:00,
2013-05-16 01:30:00,53.3,49.2,29.99,ESE,119,0.0,0.0,86,0.00,,---,0.00,VWS V14.01,2013-05-16 08:30:00,
2013-05-16 01:35:00,53.2,49.1,29.99,SE,142,0.0,0.0,86,0.00,,---,0.00,VWS V14.01,2013-05-16 08:35:00,
2013-05-16 01:40:00,53.3,49.2,29.99,SE,142,0.0,0.0,86,0.00,,---,0.00,VWS V14.01,2013-05-16 08:40:00,
2013-05-16 01:45:00,53.3,49.2,29.99,SE,136,0.0,0.0,86,0.00,,---,0.00,VWS V14.01,2013-05-16 08:45:00,
2013-05-16 01:50:00,53.3,49.2,29.99,SE,137,0.0,0.0,86,0.00,,---,0.00,VWS V14.01,2013-05-16 08:50:00,
2013-05-16 01:55:00,53.3,49.2,29.99,SE,144,0.0,0.0,86,0.00,,---,0.00,VWS V14.01,2013-05-16 08:55:00,
2013-05-16 02:00:00,53.3,49.2,29.99,SSE,148,0.0,0.0,86,0.00,,---,0.00,VWS V14.01,2013-05-16 09:00:00,
2013-05-16 02:05:00,53.2,49.4,29.99,SSE,152,0.0,0.0,87,0.00,,---,0.00,VWS V14.01,2013-05-16 09:05:00,
2013-05-16 02:10:00,53.2,49.4,29.98,SE,144,0.0,0.0,87,0.00,,---,0.00,VWS V14.01,2013-05-16 09:10:00,
2013-05-16 02:15:00,53.2,49.4,29.98,SE,124,0.0,0.0,87,0.00,,---,0.00,VWS V14.01,2013-05-16 09:15:00,
2013-05-16 02:20:00,53.2,49.4,29.98,ESE,110,0.0,0.0,87,0.00,,---,0.00,VWS V14.01,2013-05-16 09:20:00,
2013-05-16 02:26:00,53.2,49.4,29.98,ESE,110,0.0,0.0,87,0.00,,---,0.00,VWS V14.01,2013-05-16 09:26:00,
2013-05-16 02:31:00,53.2,49.4,29.98,ESE,123,0.0,0.0,87,0.00,,---,0.00,VWS V14.01,2013-05-16 09:31:00,
2013-05-16 02:36:00,53.2,49.4,29.98,ESE,115,0.0,0.0,87,0.00,,---,0.00,VWS V14.01,2013-05-16 09:36:00,
2013-05-16 02:41:00,53.2,49.4,29.98,ESE,118,0.0,0.0,87,0.00,,---,0.00,VWS V14.01,2013-05-16 09:41:00,
2013-05-16 02:46:00,53.2,49.4,29.98,ESE,111,0.0,0.0,87,0.00,,---,0.00,VWS V14.01,2013-05-16 09:46:00,
2013-05-16 02:51:00,53.2,49.4,29.97,SE,127,0.0,0.0,87,0.00,,---,0.00,VWS V14.01,2013-05-16 09:51:00,
2013-05-16 02:56:00,53.1,49.3,29.98,SE,136,0.0,0.0,87,0.00,,---,0.00,VWS V14.01,2013-05-16 09:56:00,
2013-05-16 03:01:00,53.2,49.4,29.97,East,90,0.0,0.0,87,0.00,,---,0.00,VWS V14.01,2013-05-16 10:01:00,
2013-05-16 03:06:00,53.1,49.7,29.97,SE,132,0.0,0.0,88,0.00,,---,0.00,VWS V14.01,2013-05-16 10:06:00,
2013-05-16 03:11:00,53.1,49.3,29.97,ESE,108,0.0,0.0,87,0.00,,---,0.00,VWS V14.01,2013-05-16 10:11:00,
2013-05-16 03:16:00,53.1,49.3,29.97,East,101,0.0,0.0,87,0.00,,---,0.00,VWS V14.01,2013-05-16 10:16:00,
2013-05-16 03:21:00,53.1,49.3,29.97,SE,140,0.0,0.0,87,0.00,,---,0.00,VWS V14.01,2013-05-16 10:21:00,
2013-05-16 03:26:00,53.1,49.3,29.97,SE,137,0.0,0.0,87,0.00,,---,0.00,VWS V14.01,2013-05-16 10:26:00,
2013-05-16 03:31:00,53.1,49.3,29.97,SSE,150,0.0,0.0,87,0.00,,---,0.00,VWS V14.01,2013-05-16 10:31:00,
2013-05-16 03:36:00,53.1,49.3,29.97,SE,131,0.0,0.0,87,0.00,,---,0.00,VWS V14.01,2013-05-16 10:36:00,
2013-05-16 03:41:00,53.1,49.3,29.97,SE,136,0.0,0.0,87,0.00,,---,0.00,VWS V14.01,2013-05-16 10:41:00,
2013-05-16 03:46:00,53.2,49.4,29.97,SE,132,0.0,0.0,87,0.00,,---,0.00,VWS V14.01,2013-05-16 10:46:00,
2013-05-16 03:51:00,53.2,49.4,29.97,SE,142,0.0,0.0,87,0.00,,---,0.00,VWS V14.01,2013-05-16 10:51:00,
2013-05-16 03:56:00,53.2,49.4,29.97,SE,142,0.0,0.0,87,0.00,,---,0.00,VWS V14.01,2013-05-16 10:56:00,
2013-05-16 04:02:00,53.2,49.4,29.97,ESE,110,0.0,0.0,87,0.00,,---,0.00,VWS V14.01,2013-05-16 11:02:00,
2013-05-16 04:07:00,53.2,49.4,29.97,SE,146,0.0,0.0,87,0.00,,---,0.00,VWS V14.01,2013-05-16 11:07:00,
2013-05-16 04:12:00,53.2,49.4,29.97,SSE,147,0.0,0.0,87,0.00,,---,0.00,VWS V14.01,2013-05-16 11:12:00,
2013-05-16 04:17:00,53.2,49.4,29.97,SE,142,0.0,0.0,87,0.00,,---,0.00,VWS V14.01,2013-05-16 11:17:00,
2013-05-16 04:22:00,53.2,49.4,29.97,SE,141,0.0,0.0,87,0.00,,---,0.00,VWS V14.01,2013-05-16 11:22:00,
2013-05-16 04:27:00,53.2,49.4,29.96,SE,142,0.0,0.0,87,0.00,,---,0.00,VWS V14.01,2013-05-16 11:27:00,
2013-05-16 04:32:00,53.2,49.4,29.97,SE,142,0.0,0.0,87,0.00,,---,0.00,VWS V14.01,2013-05-16 11:32:00,
2013-05-16 04:37:00,53.2,49.4,29.97,SSE,161,0.0,0.0,87,0.00,,---,0.00,VWS V14.01,2013-05-16 11:37:00,
2013-05-16 04:42:00,53.2,49.4,29.96,SSE,161,0.0,0.0,87,0.00,,---,0.00,VWS V14.01,2013-05-16 11:42:00,
2013-05-16 04:47:00,53.3,49.5,29.96,SSE,161,0.0,0.0,87,0.00,,---,0.00,VWS V14.01,2013-05-16 11:47:00,
2013-05-16 04:52:00,53.3,49.5,29.96,SSE,161,0.0,0.0,87,0.00,,---,0.00,VWS V14.01,2013-05-16 11:52:00,
2013-05-16 04:57:00,53.3,49.5,29.96,SSE,161,0.0,0.0,87,0.00,,---,0.00,VWS V14.01,2013-05-16 11:57:00,
2013-05-16 05:02:00,53.3,49.5,29.96,SSE,161,0.0,0.0,87,0.00,,---,0.00,VWS V14.01,2013-05-16 12:02:00,
2013-05-16 05:07:00,53.3,49.5,29.96,SSE,158,0.0,0.0,87,0.00,,---,0.00,VWS V14.01,2013-05-16 12:07:00,
2013-05-16 05:12:00,53.2,49.4,29.96,SSE,157,0.0,0.0,87,0.00,,---,0.00,VWS V14.01,2013-05-16 12:12:00,
2013-05-16 05:17:00,53.2,49.4,29.96,SSE,157,0.0,0.0,87,0.00,,---,0.00,VWS V14.01,2013-05-16 12:17:00,
2013-05-16 05:22:00,53.2,49.4,29.96,SSE,157,0.0,0.0,87,0.00,,---,0.00,VWS V14.01,2013-05-16 12:22:00,
2013-05-16 05:27:00,53.2,49.4,29.96,SSE,158,0.0,0.0,87,0.00,,---,0.00,VWS V14.01,2013-05-16 12:27:00,
2013-05-16 05:32:00,53.2,49.4,29.96,SSE,158,0.0,0.0,87,0.00,,---,0.00,VWS V14.01,2013-05-16 12:32:00,
2013-05-16 05:37:00,53.3,49.5,29.96,SSE,158,0.0,0.0,87,0.00,,---,0.00,VWS V14.01,2013-05-16 12:37:00,
2013-05-16 05:43:00,53.3,49.5,29.96,SSE,157,0.0,0.0,87,0.00,,---,0.00,VWS V14.01,2013-05-16 12:43:00,
2013-05-16 05:48:00,53.3,49.5,29.96,SSE,158,0.0,0.0,87,0.00,,---,0.00,VWS V14.01,2013-05-16 12:48:00,
2013-05-16 05:53:00,53.3,49.5,29.96,SSE,157,0.0,0.0,87,0.00,,---,0.00,VWS V14.01,2013-05-16 12:53:00,
2013-05-16 05:58:00,53.3,49.5,29.96,SSE,157,0.0,0.0,87,0.00,,---,0.00,VWS V14.01,2013-05-16 12:58:00,
2013-05-16 06:03:00,53.5,49.7,29.96,SSE,157,0.0,0.0,87,0.00,,---,0.00,VWS V14.01,2013-05-16 13:03:00,
2013-05-16 06:08:00,53.5,49.7,29.96,SSE,157,0.0,0.0,87,0.00,,---,0.00,VWS V14.01,2013-05-16 13:08:00,
2013-05-16 06:13:00,53.5,49.7,29.96,SSE,157,0.0,0.0,87,0.00,,---,0.00,VWS V14.01,2013-05-16 13:13:00,
2013-05-16 06:18:00,53.5,49.7,29.96,SSE,158,0.0,0.0,87,0.00,,---,0.00,VWS V14.01,2013-05-16 13:18:00,
2013-05-16 06:23:00,53.5,49.7,29.96,SSE,157,0.0,0.0,87,0.00,,---,0.00,VWS V14.01,2013-05-16 13:23:00,
2013-05-16 06:28:00,53.5,49.7,29.96,SSE,157,0.0,0.0,87,0.00,,---,0.00,VWS V14.01,2013-05-16 13:28:00,
2013-05-16 06:33:00,53.5,49.7,29.96,SSE,157,0.0,0.0,87,0.00,,---,0.00,VWS V14.01,2013-05-16 13:33:00,
2013-05-16 06:38:00,53.5,49.7,29.97,SSE,157,0.0,0.0,87,0.00,,---,0.00,VWS V14.01,2013-05-16 13:38:00,
2013-05-16 06:43:00,53.5,49.7,29.97,SSE,157,0.0,0.0,87,0.00,,---,0.00,VWS V14.01,2013-05-16 13:43:00,
2013-05-16 06:48:00,53.6,49.8,29.97,SSE,157,0.0,0.0,87,0.00,,---,0.00,VWS V14.01,2013-05-16 13:48:00,
2013-05-16 06:53:00,53.6,49.8,29.97,SSE,157,0.0,0.0,87,0.00,,---,0.00,VWS V14.01,2013-05-16 13:53:00,
2013-05-16 06:58:00,53.6,49.5,29.97,SSE,157,0.0,0.0,86,0.00,,---,0.00,VWS V14.01,2013-05-16 13:58:00,
2013-05-16 07:03:00,53.8,49.7,29.97,SSE,158,0.0,0.0,86,0.00,,---,0.00,VWS V14.01,2013-05-16 14:03:00,
2013-05-16 07:08:00,53.8,49.7,29.97,SSW,205,0.0,0.0,86,0.00,,---,0.00,VWS V14.01,2013-05-16 14:08:00,
2013-05-16 07:13:00,53.9,49.8,29.97,South,177,0.0,0.0,86,0.00,,---,0.00,VWS V14.01,2013-05-16 14:13:00,
2013-05-16 07:18:00,53.9,49.8,29.97,SSW,200,0.0,0.0,86,0.00,,---,0.00,VWS V14.01,2013-05-16 14:18:00,
2013-05-16 07:24:00,54.1,49.7,29.97,SSE,148,0.0,0.0,85,0.00,,---,0.00,VWS V14.01,2013-05-16 14:24:00,
2013-05-16 07:29:00,54.2,49.8,29.97,SE,136,0.0,0.0,85,0.00,,---,0.00,VWS V14.01,2013-05-16 14:29:00,
2013-05-16 07:34:00,54.4,49.7,29.97,West,275,0.0,0.0,84,0.00,,---,0.00,VWS V14.01,2013-05-16 14:34:00,
2013-05-16 07:39:00,54.5,49.8,29.97,West,275,0.0,0.0,84,0.00,,---,0.00,VWS V14.01,2013-05-16 14:39:00,
2013-05-16 07:44:00,54.5,49.5,29.97,West,275,0.0,0.0,83,0.00,,---,0.00,VWS V14.01,2013-05-16 14:44:00,
2013-05-16 07:49:00,54.7,49.3,29.97,SW,233,0.0,0.0,82,0.00,,---,0.00,VWS V14.01,2013-05-16 14:49:00,
2013-05-16 07:54:00,54.8,49.1,29.97,SW,229,0.0,0.0,81,0.00,,---,0.00,VWS V14.01,2013-05-16 14:54:00,
2013-05-16 07:59:00,55.0,49.3,29.97,SW,232,0.0,0.0,81,0.00,,---,0.00,VWS V14.01,2013-05-16 14:59:00,
2013-05-16 08:04:00,55.1,49.0,29.97,SW,227,0.0,0.0,80,0.00,,---,0.00,VWS V14.01,2013-05-16 15:04:00,
2013-05-16 08:09:00,55.1,49.0,29.97,SW,227,0.0,0.0,80,0.00,,---,0.00,VWS V14.01,2013-05-16 15:09:00,
2013-05-16 08:14:00,55.4,49.3,29.97,SW,227,0.0,0.0,80,0.00,,---,0.00,VWS V14.01,2013-05-16 15:14:00,
2013-05-16 08:19:00,55.6,49.2,29.97,SW,234,0.0,0.0,79,0.00,,---,0.00,VWS V14.01,2013-05-16 15:19:00,
2013-05-16 08:24:00,55.7,49.3,29.97,SW,231,0.0,0.0,79,0.00,,---,0.00,VWS V14.01,2013-05-16 15:24:00,
2013-05-16 08:29:00,55.9,49.2,29.97,SW,228,0.0,0.0,78,0.00,,---,0.00,VWS V14.01,2013-05-16 15:29:00,
2013-05-16 08:34:00,56.0,49.2,29.97,SSW,192,0.0,0.0,78,0.00,,---,0.00,VWS V14.01,2013-05-16 15:34:00,
2013-05-16 08:39:00,56.2,49.4,29.97,WSW,243,0.0,0.0,78,0.00,,---,0.00,VWS V14.01,2013-05-16 15:39:00,
2013-05-16 08:44:00,56.3,49.2,29.96,West,267,0.0,0.0,77,0.00,,---,0.00,VWS V14.01,2013-05-16 15:44:00,
2013-05-16 08:50:00,56.3,49.2,29.96,WSW,252,0.0,0.0,77,0.00,,---,0.00,VWS V14.01,2013-05-16 15:50:00,
2013-05-16 08:55:00,56.3,48.8,29.96,West,275,0.0,0.0,76,0.00,,---,0.00,VWS V14.01,2013-05-16 15:55:00,
2013-05-16 09:00:00,56.5,49.0,29.96,SSW,205,0.0,0.0,76,0.00,,---,0.00,VWS V14.01,2013-05-16 16:00:00,
2013-05-16 09:05:00,56.6,49.1,29.96,SSW,205,0.0,0.0,76,0.00,,---,0.00,VWS V14.01,2013-05-16 16:05:00,
2013-05-16 09:10:00,56.9,49.1,29.96,SSW,205,0.0,0.0,75,0.00,,---,0.00,VWS V14.01,2013-05-16 16:10:00,
2013-05-16 09:15:00,57.0,48.8,29.96,South,182,0.0,0.0,74,0.00,,---,0.00,VWS V14.01,2013-05-16 16:15:00,
2013-05-16 09:20:00,57.5,48.9,29.96,West,278,0.0,0.0,73,0.00,,---,0.00,VWS V14.01,2013-05-16 16:20:00,
2013-05-16 09:25:00,57.8,49.2,29.96,SSW,201,0.0,0.0,73,0.00,,---,0.00,VWS V14.01,2013-05-16 16:25:00,
2013-05-16 09:30:00,58.3,49.3,29.96,West,267,0.0,0.0,72,0.00,,---,0.00,VWS V14.01,2013-05-16 16:30:00,
2013-05-16 09:35:00,58.3,49.0,29.96,South,184,0.0,0.0,71,0.00,,---,0.00,VWS V14.01,2013-05-16 16:35:00,
2013-05-16 09:40:00,58.4,48.7,29.96,WSW,250,0.0,0.0,70,0.00,,---,0.00,VWS V14.01,2013-05-16 16:40:00,
2013-05-16 09:45:00,58.4,48.7,29.96,NW,304,0.0,0.0,70,0.00,,---,0.00,VWS V14.01,2013-05-16 16:45:00,
2013-05-16 09:50:00,58.6,48.5,29.96,NW,314,0.0,0.0,69,0.00,,---,0.00,VWS V14.01,2013-05-16 16:50:00,
2013-05-16 09:55:00,58.9,48.8,29.96,SW,231,0.0,0.0,69,0.00,,---,0.00,VWS V14.01,2013-05-16 16:55:00,
2013-05-16 10:00:00,59.0,48.1,29.96,SW,232,0.0,0.0,67,0.00,,---,0.00,VWS V14.01,2013-05-16 17:00:00,
2013-05-16 10:06:00,59.0,48.1,29.96,SW,232,0.0,0.0,67,0.00,,---,0.00,VWS V14.01,2013-05-16 17:06:00,
2013-05-16 10:11:00,59.2,48.3,29.96,SW,232,0.0,0.0,67,0.00,,---,0.00,VWS V14.01,2013-05-16 17:11:00,
2013-05-16 10:16:00,59.3,48.4,29.96,SW,231,0.0,0.0,67,0.00,,---,0.00,VWS V14.01,2013-05-16 17:16:00,
2013-05-16 10:21:00,59.3,48.4,29.96,WSW,257,0.0,0.0,67,0.00,,---,0.00,VWS V14.01,2013-05-16 17:21:00,
2013-05-16 10:26:00,59.3,48.8,29.96,West,263,0.0,0.0,68,0.00,,---,0.00,VWS V14.01,2013-05-16 17:26:00,
2013-05-16 10:31:00,59.3,48.8,29.96,NW,325,0.0,0.0,68,0.00,,---,0.00,VWS V14.01,2013-05-16 17:31:00,
2013-05-16 10:36:00,59.5,48.9,29.96,WSW,239,0.0,0.0,68,0.00,,---,0.00,VWS V14.01,2013-05-16 17:36:00,
2013-05-16 10:41:00,59.9,49.3,29.96,NNW,339,0.0,0.0,68,0.00,,---,0.00,VWS V14.01,2013-05-16 17:41:00,
2013-05-16 10:46:00,59.9,48.9,29.96,NE,40,0.0,0.0,67,0.00,,---,0.00,VWS V14.01,2013-05-16 17:46:00,
2013-05-16 10:51:00,60.1,49.1,29.96,NNE,20,0.0,0.0,67,0.00,,---,0.00,VWS V14.01,2013-05-16 17:51:00,
2013-05-16 10:56:00,60.5,49.1,29.96,West,263,0.0,0.0,66,0.00,,---,0.00,VWS V14.01,2013-05-16 17:56:00,
2013-05-16 11:01:00,60.7,48.9,29.95,West,263,0.0,0.0,65,0.00,,---,0.00,VWS V14.01,2013-05-16 18:01:00,
2013-05-16 11:06:00,60.9,49.1,29.95,NNE,17,0.0,0.0,65,0.00,,---,0.00,VWS V14.01,2013-05-16 18:06:00,
2013-05-16 11:11:00,60.5,48.3,29.95,NNE,18,0.0,0.0,64,0.00,,---,0.00,VWS V14.01,2013-05-16 18:11:00,
2013-05-16 11:16:00,60.5,48.3,29.95,West,272,0.0,0.0,64,0.00,,---,0.00,VWS V14.01,2013-05-16 18:16:00,
2013-05-16 11:21:00,61.0,49.2,29.95,WNW,292,0.0,0.0,65,0.00,,---,0.00,VWS V14.01,2013-05-16 18:21:00,
2013-05-16 11:26:00,61.5,49.2,29.95,WNW,290,0.0,0.0,64,0.00,,---,0.00,VWS V14.01,2013-05-16 18:26:00,
2013-05-16 11:32:00,62.1,48.5,29.95,West,269,0.0,0.0,61,0.00,,---,0.00,VWS V14.01,2013-05-16 18:32:00,
2013-05-16 11:37:00,62.3,48.7,29.95,West,269,0.0,0.0,61,0.00,,---,0.00,VWS V14.01,2013-05-16 18:37:00,
2013-05-16 11:42:00,62.7,49.1,29.94,NW,319,0.0,0.0,61,0.00,,---,0.00,VWS V14.01,2013-05-16 18:42:00,
2013-05-16 11:47:00,62.9,48.4,29.94,NNE,32,0.0,0.0,59,0.00,,---,0.00,VWS V14.01,2013-05-16 18:47:00,
2013-05-16 11:52:00,63.1,48.1,29.94,NE,56,0.0,0.0,58,0.00,,---,0.00,VWS V14.01,2013-05-16 18:52:00,
2013-05-16 11:57:00,62.9,47.9,29.94,NNW,329,0.0,0.0,58,0.00,,---,0.00,VWS V14.01,2013-05-16 18:57:00,
2013-05-16 12:02:00,62.9,49.3,29.94,NE,36,0.0,0.0,61,0.00,,---,0.00,VWS V14.01,2013-05-16 19:02:00,
2013-05-16 12:07:00,62.9,47.9,29.94,NW,314,0.0,0.0,58,0.00,,---,0.00,VWS V14.01,2013-05-16 19:07:00,
2013-05-16 12:12:00,63.4,48.4,29.94,NW,315,0.0,0.0,58,0.00,,---,0.00,VWS V14.01,2013-05-16 19:12:00,
2013-05-16 12:17:00,63.4,48.4,29.94,NW,307,0.0,0.0,58,0.00,,---,0.00,VWS V14.01,2013-05-16 19:17:00,
2013-05-16 12:22:00,63.5,48.0,29.93,WNW,286,0.0,0.0,57,0.00,,---,0.00,VWS V14.01,2013-05-16 19:22:00,
2013-05-16 12:27:00,63.7,48.7,29.93,SSE,150,0.0,0.0,58,0.00,,---,0.00,VWS V14.01,2013-05-16 19:27:00,
2013-05-16 12:32:00,63.9,47.9,29.93,West,279,0.0,0.0,56,0.00,,---,0.00,VWS V14.01,2013-05-16 19:32:00,
2013-05-16 12:37:00,63.9,48.4,29.93,WNW,298,0.0,0.0,57,0.00,,---,0.00,VWS V14.01,2013-05-16 19:37:00,
2013-05-16 12:42:00,64.2,48.2,29.93,NNW,343,0.0,0.0,56,0.00,,---,0.00,VWS V14.01,2013-05-16 19:42:00,
2013-05-16 12:47:00,64.0,48.5,29.93,NW,304,0.0,0.0,57,0.00,,---,0.00,VWS V14.01,2013-05-16 19:47:00,
2013-05-16 12:52:00,64.2,49.1,29.92,NW,317,0.0,0.0,58,0.00,,---,0.00,VWS V14.01,2013-05-16 19:52:00,
2013-05-16 12:58:00,63.9,47.9,29.92,West,281,0.0,0.0,56,0.00,,---,0.00,VWS V14.01,2013-05-16 19:58:00,
2013-05-16 13:03:00,64.0,48.0,29.92,NW,322,0.0,0.0,56,0.00,,---,0.00,VWS V14.01,2013-05-16 20:03:00,
2013-05-16 13:08:00,64.2,47.2,29.92,West,266,0.0,0.0,54,0.00,,---,0.00,VWS V14.01,2013-05-16 20:08:00,
2013-05-16 13:13:00,64.5,46.0,29.92,WSW,258,0.0,0.0,51,0.00,,---,0.00,VWS V14.01,2013-05-16 20:13:00,
2013-05-16 13:18:00,65.5,48.4,29.92,WNW,299,0.0,0.0,54,0.00,,---,0.00,VWS V14.01,2013-05-16 20:18:00,
2013-05-16 13:23:00,65.3,47.2,29.92,WNW,297,0.0,0.0,52,0.00,,---,0.00,VWS V14.01,2013-05-16 20:23:00,
2013-05-16 13:28:00,65.5,46.4,29.92,West,263,0.0,0.0,50,0.00,,---,0.00,VWS V14.01,2013-05-16 20:28:00,
2013-05-16 13:33:00,65.8,46.7,29.91,West,265,0.0,0.0,50,0.00,,---,0.00,VWS V14.01,2013-05-16 20:33:00,
2013-05-16 13:38:00,66.4,46.7,29.91,North,360,0.0,0.0,49,0.00,,---,0.00,VWS V14.01,2013-05-16 20:38:00,
2013-05-16 13:43:00,66.4,46.1,29.91,NNW,327,0.0,0.0,48,0.00,,---,0.00,VWS V14.01,2013-05-16 20:43:00,
2013-05-16 13:48:00,66.0,46.3,29.91,NNE,18,0.0,0.0,49,0.00,,---,0.00,VWS V14.01,2013-05-16 20:48:00,
2013-05-16 13:53:00,65.8,46.7,29.91,NW,325,0.0,0.0,50,0.00,,---,0.00,VWS V14.01,2013-05-16 20:53:00,
2013-05-16 13:58:00,65.6,47.0,29.90,North,360,0.0,0.0,51,0.00,,---,0.00,VWS V14.01,2013-05-16 20:58:00,
2013-05-16 14:03:00,66.3,47.7,29.90,NNE,13,0.0,0.0,51,0.00,,---,0.00,VWS V14.01,2013-05-16 21:03:00,
2013-05-16 14:08:00,66.3,47.1,29.90,North,360,0.0,0.0,50,0.00,,---,0.00,VWS V14.01,2013-05-16 21:08:00,
2013-05-16 14:14:00,66.8,47.0,29.90,NNE,24,0.0,0.0,49,0.00,,---,0.00,VWS V14.01,2013-05-16 21:14:00,
2013-05-16 14:19:00,67.3,47.0,29.90,NNE,22,0.0,0.0,48,0.00,,---,0.00,VWS V14.01,2013-05-16 21:19:00,
2013-05-16 14:24:00,67.1,45.7,29.90,NW,306,0.0,0.0,46,0.00,,---,0.00,VWS V14.01,2013-05-16 21:24:00,
2013-05-16 14:29:00,66.8,45.9,29.90,North,5,0.0,0.0,47,0.00,,---,0.00,VWS V14.01,2013-05-16 21:29:00,
2013-05-16 14:34:00,66.9,46.0,29.90,NW,313,0.0,0.0,47,0.00,,---,0.00,VWS V14.01,2013-05-16 21:34:00,
2013-05-16 14:39:00,67.1,45.1,29.89,NW,306,0.0,0.0,45,0.00,,---,0.00,VWS V14.01,2013-05-16 21:39:00,
2013-05-16 14:44:00,67.3,45.2,29.89,WNW,298,0.0,0.0,45,0.00,,---,0.00,VWS V14.01,2013-05-16 21:44:00,
2013-05-16 14:49:00,67.8,44.5,29.89,WNW,286,0.0,0.0,43,0.00,,---,0.00,VWS V14.01,2013-05-16 21:49:00,
2013-05-16 14:54:00,68.3,44.3,29.89,North,351,0.0,0.0,42,0.00,,---,0.00,VWS V14.01,2013-05-16 21:54:00,
2013-05-16 14:59:00,68.3,43.1,29.89,NNW,327,0.0,0.0,40,0.00,,---,0.00,VWS V14.01,2013-05-16 21:59:00,
2013-05-16 15:04:00,68.4,44.4,29.89,NNW,339,0.0,0.0,42,0.00,,---,0.00,VWS V14.01,2013-05-16 22:04:00,
2013-05-16 15:09:00,68.1,44.8,29.88,NW,323,0.0,0.0,43,0.00,,---,0.00,VWS V14.01,2013-05-16 22:09:00,
2013-05-16 15:14:00,68.3,44.3,29.88,NW,325,0.0,0.0,42,0.00,,---,0.00,VWS V14.01,2013-05-16 22:14:00,
2013-05-16 15:19:00,68.1,45.4,29.88,NW,325,0.0,0.0,44,0.00,,---,0.00,VWS V14.01,2013-05-16 22:19:00,
2013-05-16 15:24:00,67.8,45.7,29.88,NNW,333,0.0,0.0,45,0.00,,---,0.00,VWS V14.01,2013-05-16 22:24:00,
2013-05-16 15:29:00,67.9,47.5,29.88,WNW,287,0.0,0.0,48,0.00,,---,0.00,VWS V14.01,2013-05-16 22:29:00,
2013-05-16 15:34:00,68.1,47.1,29.88,WNW,300,0.0,0.0,47,0.00,,---,0.00,VWS V14.01,2013-05-16 22:34:00,
2013-05-16 15:40:00,67.9,47.0,29.88,NW,314,0.0,0.0,47,0.00,,---,0.00,VWS V14.01,2013-05-16 22:40:00,
2013-05-16 15:45:00,67.6,46.7,29.88,NNW,348,0.0,0.0,47,0.00,,---,0.00,VWS V14.01,2013-05-16 22:45:00,
2013-05-16 15:50:00,67.4,45.3,29.88,NW,324,0.0,0.0,45,0.00,,---,0.00,VWS V14.01,2013-05-16 22:50:00,
2013-05-16 15:55:00,67.4,45.9,29.88,NNW,338,0.0,0.0,46,0.00,,---,0.00,VWS V14.01,2013-05-16 22:55:00,
2013-05-16 16:00:00,67.8,46.3,29.87,WNW,298,0.0,0.0,46,0.00,,---,0.00,VWS V14.01,2013-05-16 23:00:00,
2013-05-16 16:05:00,67.9,46.4,29.87,NW,323,0.0,0.0,46,0.00,,---,0.00,VWS V14.01,2013-05-16 23:05:00,
2013-05-16 16:10:00,67.9,45.8,29.87,NW,307,0.0,0.0,45,0.00,,---,0.00,VWS V14.01,2013-05-16 23:10:00,
2013-05-16 16:15:00,68.1,46.0,29.87,West,273,0.0,0.0,45,0.00,,---,0.00,VWS V14.01,2013-05-16 23:15:00,
2013-05-16 16:20:00,68.1,46.0,29.87,NW,306,0.0,0.0,45,0.00,,---,0.00,VWS V14.01,2013-05-16 23:20:00,
2013-05-16 16:25:00,68.3,46.7,29.87,WNW,298,0.0,0.0,46,0.00,,---,0.00,VWS V14.01,2013-05-16 23:25:00,
2013-05-16 16:30:00,68.3,46.7,29.87,NW,315,0.0,0.0,46,0.00,,---,0.00,VWS V14.01,2013-05-16 23:30:00,
2013-05-16 16:35:00,68.1,47.1,29.86,NNE,25,0.0,0.0,47,0.00,,---,0.00,VWS V14.01,2013-05-16 23:35:00,
2013-05-16 16:40:00,67.6,47.8,29.86,NNW,348,0.0,0.0,49,0.00,,---,0.00,VWS V14.01,2013-05-16 23:40:00,
2013-05-16 16:45:00,67.6,47.2,29.86,NW,324,0.0,0.0,48,0.00,,---,0.00,VWS V14.01,2013-05-16 23:45:00,
2013-05-16 16:50:00,67.8,48.0,29.86,NNW,336,0.0,0.0,49,0.00,,---,0.00,VWS V14.01,2013-05-16 23:50:00,
2013-05-16 16:55:00,67.9,48.6,29.86,North,360,0.0,0.0,50,0.00,,---,0.00,VWS V14.01,2013-05-16 23:55:00,
2013-05-16 17:00:00,67.9,48.1,29.86,NW,323,0.0,0.0,49,0.00,,---,0.00,VWS V14.01,2013-05-17 00:00:00,
2013-05-16 17:06:00,67.6,47.2,29.86,NNW,336,0.0,0.0,48,0.00,,---,0.00,VWS V14.01,2013-05-17 00:06:00,
2013-05-16 17:11:00,67.1,46.2,29.86,NW,306,0.0,0.0,47,0.00,,---,0.00,VWS V14.01,2013-05-17 00:11:00,
2013-05-16 17:16:00,66.8,47.6,29.86,NE,34,0.0,0.0,50,0.00,,---,0.00,VWS V14.01,2013-05-17 00:16:00,
2013-05-16 17:21:00,66.8,47.6,29.86,NW,306,0.0,0.0,50,0.00,,---,0.00,VWS V14.01,2013-05-17 00:21:00,
2013-05-16 17:26:00,66.4,47.7,29.86,ENE,65,0.0,0.0,51,0.00,,---,0.00,VWS V14.01,2013-05-17 00:26:00,
2013-05-16 17:31:00,66.3,48.7,29.86,NNW,329,0.0,0.0,53,0.00,,---,0.00,VWS V14.01,2013-05-17 00:31:00,
2013-05-16 17:36:00,66.3,49.2,29.86,West,280,0.0,0.0,54,0.00,,---,0.00,VWS V14.01,2013-05-17 00:36:00,
2013-05-16 17:41:00,66.3,49.2,29.85,NNW,331,0.0,0.0,54,0.00,,---,0.00,VWS V14.01,2013-05-17 00:41:00,
2013-05-16 17:46:00,65.8,48.7,29.85,NW,324,0.0,0.0,54,0.00,,---,0.00,VWS V14.01,2013-05-17 00:46:00,
2013-05-16 17:51:00,65.8,49.2,29.85,WNW,290,0.0,0.0,55,0.00,,---,0.00,VWS V14.01,2013-05-17 00:51:00,
2013-05-16 17:56:00,65.6,49.0,29.85,WNW,287,0.0,0.0,55,0.00,,---,0.00,VWS V14.01,2013-05-17 00:56:00,
2013-05-16 18:01:00,65.5,49.4,29.85,NW,313,0.0,0.0,56,0.00,,---,0.00,VWS V14.01,2013-05-17 01:01:00,
2013-05-16 18:06:00,65.5,49.4,29.85,WNW,292,0.0,0.0,56,0.00,,---,0.00,VWS V14.01,2013-05-17 01:06:00,
2013-05-16 18:11:00,65.5,48.9,29.85,NNW,329,0.0,0.0,55,0.00,,---,0.00,VWS V14.01,2013-05-17 01:11:00,
2013-05-16 18:16:00,65.0,48.9,29.85,WNW,296,0.0,0.0,56,0.00,,---,0.00,VWS V14.01,2013-05-17 01:16:00,
2013-05-16 18:21:00,65.0,49.4,29.85,NW,315,0.0,0.0,57,0.00,,---,0.00,VWS V14.01,2013-05-17 01:21:00,
2013-05-16 18:26:00,65.0,48.9,29.85,NW,321,0.0,0.0,56,0.00,,---,0.00,VWS V14.01,2013-05-17 01:26:00,
2013-05-16 18:32:00,64.8,48.8,29.85,NW,317,0.0,0.0,56,0.00,,---,0.00,VWS V14.01,2013-05-17 01:32:00,
2013-05-16 18:37:00,64.7,49.1,29.85,WNW,288,0.0,0.0,57,0.00,,---,0.00,VWS V14.01,2013-05-17 01:37:00,
2013-05-16 18:42:00,64.7,48.7,29.85,NNW,327,0.0,0.0,56,0.00,,---,0.00,VWS V14.01,2013-05-17 01:42:00,
2013-05-16 18:47:00,64.2,48.2,29.85,WNW,284,0.0,0.0,56,0.00,,---,0.00,VWS V14.01,2013-05-17 01:47:00,
2013-05-16 18:52:00,63.9,47.9,29.85,WNW,292,0.0,0.0,56,0.00,,---,0.00,VWS V14.01,2013-05-17 01:52:00,
2013-05-16 18:57:00,63.7,48.7,29.86,WSW,255,0.0,0.0,58,0.00,,---,0.00,VWS V14.01,2013-05-17 01:57:00,
2013-05-16 19:02:00,63.5,48.0,29.86,NW,313,0.0,0.0,57,0.00,,---,0.00,VWS V14.01,2013-05-17 02:02:00,
2013-05-16 19:07:00,63.4,48.4,29.86,WNW,284,0.0,0.0,58,0.00,,---,0.00,VWS V14.01,2013-05-17 02:07:00,
2013-05-16 19:12:00,63.2,48.2,29.86,NW,307,0.0,0.0,58,0.00,,---,0.00,VWS V14.01,2013-05-17 02:12:00,
2013-05-16 19:17:00,63.2,47.7,29.86,North,351,0.0,0.0,57,0.00,,---,0.00,VWS V14.01,2013-05-17 02:17:00,
2013-05-16 19:22:00,62.7,47.7,29.86,NW,320,0.0,0.0,58,0.00,,---,0.00,VWS V14.01,2013-05-17 02:22:00,
2013-05-16 19:27:00,62.4,47.5,29.86,NNW,332,0.0,0.0,58,0.00,,---,0.00,VWS V14.01,2013-05-17 02:27:00,
2013-05-16 19:32:00,62.3,47.3,29.87,NW,308,0.0,0.0,58,0.00,,---,0.00,VWS V14.01,2013-05-17 02:32:00,
2013-05-16 19:37:00,62.1,47.2,29.87,NW,326,0.0,0.0,58,0.00,,---,0.00,VWS V14.01,2013-05-17 02:37:00,
2013-05-16 19:42:00,62.0,47.1,29.87,NW,309,0.0,0.0,58,0.00,,---,0.00,VWS V14.01,2013-05-17 02:42:00,
2013-05-16 19:47:00,61.8,46.9,29.87,NW,325,0.0,0.0,58,0.00,,---,0.00,VWS V14.01,2013-05-17 02:47:00,
2013-05-16 19:52:00,61.6,46.2,29.87,NW,326,0.0,0.0,57,0.00,,---,0.00,VWS V14.01,2013-05-17 02:52:00,
2013-05-16 19:57:00,61.6,46.2,29.87,North,11,0.0,0.0,57,0.00,,---,0.00,VWS V14.01,2013-05-17 02:57:00,
2013-05-16 20:02:00,61.5,46.1,29.87,NNW,347,0.0,0.0,57,0.00,,---,0.00,VWS V14.01,2013-05-17 03:02:00,
2013-05-16 20:07:00,61.3,46.4,29.88,WNW,302,0.0,0.0,58,0.00,,---,0.00,VWS V14.01,2013-05-17 03:07:00,
2013-05-16 20:13:00,61.2,46.3,29.88,NW,309,0.0,0.0,58,0.00,,---,0.00,VWS V14.01,2013-05-17 03:13:00,
2013-05-16 20:18:00,61.0,46.1,29.88,WNW,294,0.0,0.0,58,0.00,,---,0.00,VWS V14.01,2013-05-17 03:18:00,
2013-05-16 20:23:00,60.9,46.0,29.88,NW,323,0.0,0.0,58,0.00,,---,0.00,VWS V14.01,2013-05-17 03:23:00,
2013-05-16 20:28:00,60.5,45.7,29.88,WNW,302,0.0,0.0,58,0.00,,---,0.00,VWS V14.01,2013-05-17 03:28:00,
2013-05-16 20:33:00,60.5,45.7,29.88,NW,318,0.0,0.0,58,0.00,,---,0.00,VWS V14.01,2013-05-17 03:33:00,
2013-05-16 20:38:00,60.4,45.6,29.89,NNE,12,0.0,0.0,58,0.00,,---,0.00,VWS V14.01,2013-05-17 03:38:00,
2013-05-16 20:43:00,60.4,46.0,29.89,North,11,0.0,0.0,59,0.00,,---,0.00,VWS V14.01,2013-05-17 03:43:00,
2013-05-16 20:48:00,60.2,45.4,29.89,West,277,0.0,0.0,58,0.00,,---,0.00,VWS V14.01,2013-05-17 03:48:00,
2013-05-16 20:53:00,60.1,45.3,29.89,WSW,243,0.0,0.0,58,0.00,,---,0.00,VWS V14.01,2013-05-17 03:53:00,
2013-05-16 20:58:00,59.9,45.1,29.89,West,276,0.0,0.0,58,0.00,,---,0.00,VWS V14.01,2013-05-17 03:58:00,
2013-05-16 21:01:00,59.9,45.1,29.90,West,276,0.0,0.0,58,0.00,,---,0.00,VWS V14.01,2013-05-17 04:01:00,
2013-05-16 21:02:00,59.9,45.1,29.90,West,276,0.0,0.0,58,0.00,,---,0.00,VWS V14.01,2013-05-17 04:02:00,
2013-05-16 21:07:00,59.8,45.5,29.90,WSW,241,0.0,0.0,59,0.00,,---,0.00,VWS V14.01,2013-05-17 04:07:00,
2013-05-16 21:12:00,59.6,45.3,29.90,NW,322,0.0,0.0,59,0.00,,---,0.00,VWS V14.01,2013-05-17 04:12:00,
2013-05-16 21:17:00,59.6,45.7,29.91,WSW,251,0.0,0.0,60,0.00,,---,0.00,VWS V14.01,2013-05-17 04:17:00,
2013-05-16 21:22:00,59.5,46.1,29.91,WSW,238,0.0,0.0,61,0.00,,---,0.00,VWS V14.01,2013-05-17 04:22:00,
2013-05-16 21:27:00,59.5,46.1,29.91,WSW,238,0.0,0.0,61,0.00,,---,0.00,VWS V14.01,2013-05-17 04:27:00,
2013-05-16 21:32:00,59.5,46.1,29.91,WSW,238,0.0,0.0,61,0.00,,---,0.00,VWS V14.01,2013-05-17 04:32:00,
2013-05-16 21:37:00,59.5,46.5,29.91,WSW,238,0.0,0.0,62,0.00,,---,0.00,VWS V14.01,2013-05-17 04:37:00,
2013-05-16 21:42:00,59.5,47.3,29.92,WSW,257,0.0,0.0,64,0.00,,---,0.00,VWS V14.01,2013-05-17 04:42:00,
2013-05-16 21:48:00,59.3,47.5,29.92,SSW,209,0.0,0.0,65,0.00,,---,0.00,VWS V14.01,2013-05-17 04:48:00,
2013-05-16 21:53:00,59.3,48.0,29.92,West,261,0.0,0.0,66,0.00,,---,0.00,VWS V14.01,2013-05-17 04:53:00,
2013-05-16 21:58:00,59.2,48.3,29.92,SW,225,0.0,0.0,67,0.00,,---,0.00,VWS V14.01,2013-05-17 04:58:00,
2013-05-16 22:03:00,59.0,48.5,29.92,SW,218,0.0,0.0,68,0.00,,---,0.00,VWS V14.01,2013-05-17 05:03:00,
2013-05-16 22:08:00,58.9,48.8,29.92,WSW,238,0.0,0.0,69,0.00,,---,0.00,VWS V14.01,2013-05-17 05:08:00,
2013-05-16 22:13:00,58.6,48.5,29.92,SSW,207,0.0,0.0,69,0.00,,---,0.00,VWS V14.01,2013-05-17 05:13:00,
2013-05-16 22:18:00,58.4,48.7,29.92,SSW,201,0.0,0.0,70,0.00,,---,0.00,VWS V14.01,2013-05-17 05:18:00,
2013-05-16 22:23:00,58.3,48.6,29.92,WSW,247,0.0,0.0,70,0.00,,---,0.00,VWS V14.01,2013-05-17 05:23:00,
2013-05-16 22:28:00,58.3,49.0,29.92,SSW,210,0.0,0.0,71,0.00,,---,0.00,VWS V14.01,2013-05-17 05:28:00,
2013-05-16 22:33:00,58.1,48.8,29.92,WSW,248,0.0,0.0,71,0.00,,---,0.00,VWS V14.01,2013-05-17 05:33:00,
2013-05-16 22:38:00,58.0,49.0,29.92,SSW,207,0.0,0.0,72,0.00,,---,0.00,VWS V14.01,2013-05-17 05:38:00,
2013-05-16 22:43:00,57.6,48.7,29.92,SW,233,0.0,0.0,72,0.00,,---,0.00,VWS V14.01,2013-05-17 05:43:00,
2013-05-16 22:48:00,57.6,48.7,29.92,SW,214,0.0,0.0,72,0.00,,---,0.00,VWS V14.01,2013-05-17 05:48:00,
2013-05-16 22:53:00,57.5,48.9,29.92,SSW,202,0.0,0.0,73,0.00,,---,0.00,VWS V14.01,2013-05-17 05:53:00,
2013-05-16 22:58:00,57.3,48.7,29.92,SSW,200,0.0,0.0,73,0.00,,---,0.00,VWS V14.01,2013-05-17 05:58:00,
2013-05-16 23:03:00,57.2,48.3,29.93,SW,233,0.0,0.0,72,0.00,,---,0.00,VWS V14.01,2013-05-17 06:03:00,
2013-05-16 23:08:00,57.2,48.6,29.93,SSW,205,0.0,0.0,73,0.00,,---,0.00,VWS V14.01,2013-05-17 06:08:00,
2013-05-16 23:13:00,57.0,48.4,29.93,SSW,199,0.0,0.0,73,0.00,,---,0.00,VWS V14.01,2013-05-17 06:13:00,
2013-05-16 23:18:00,57.0,48.1,29.93,SW,216,0.0,0.0,72,0.00,,---,0.00,VWS V14.01,2013-05-17 06:18:00,
2013-05-16 23:24:00,56.7,47.8,29.93,SW,219,0.0,0.0,72,0.00,,---,0.00,VWS V14.01,2013-05-17 06:24:00,
2013-05-16 23:29:00,56.6,47.7,29.93,SSW,213,0.0,0.0,72,0.00,,---,0.00,VWS V14.01,2013-05-17 06:29:00,
2013-05-16 23:34:00,56.5,47.6,29.93,SW,219,0.0,0.0,72,0.00,,---,0.00,VWS V14.01,2013-05-17 06:34:00,
2013-05-16 23:39:00,56.3,47.4,29.93,SW,217,0.0,0.0,72,0.00,,---,0.00,VWS V14.01,2013-05-17 06:39:00,
2013-05-16 23:44:00,56.2,47.3,29.93,SW,235,0.0,0.0,72,0.00,,---,0.00,VWS V14.01,2013-05-17 06:44:00,
2013-05-16 23:49:00,56.2,47.3,29.93,SW,221,0.0,0.0,72,0.00,,---,0.00,VWS V14.01,2013-05-17 06:49:00,
2013-05-16 23:54:00,56.0,47.1,29.93,SW,216,0.0,0.0,72,0.00,,---,0.00,VWS V14.01,2013-05-17 06:54:00,
2013-05-16 23:59:00,55.9,47.0,29.93,South,188,0.0,0.0,72,0.00,,---,0.00,VWS V14.01,2013-05-17 06:59:00,